SHIJIAN-20 (SJ-20)

Last updated on Wed Mar 11 2026 00:02:55 GMT+0000 (Coordinated Universal Time)

1 44910U 19097A 26069.51796348 -.00000016 00000+0 00000+0 0 9996 2 44910 4.6644 76.2707 0001363 15.9037 334.3726 1.00082262 22701
UTC large
Height (km)
Speed (km/s)
/
Latitude / Longitude
Inclination (degrees)
Orbital Period (minutes)
Azimuth
Elevation
Range (km)
Doppler Factor

Next 0 passes for location: London (51.5072 / 0.1276)

Sorry there are no passes over London.